Kremmling, CO

12:32 AM MDT on March 28, 2017 (GMT -0600)
Kremmling

Weather History for K20V - August, 2012

Change the Weather History Date:

Tuesday, August 7, 2012

  Actual Average Record
Temperature  
Mean Temperature 65 °F -  
Max Temperature 80 °F - 86 °F (2005)
Min Temperature 50 °F - 35 °F (2015)
Degree Days  
Heating Degree Days 0    
Month to date heating degree days  
Cooling Degree Days 0    
Month to date cooling degree days  
Growing Degree Days 15 (Base 50)    
Moisture  
Dew Point 42 °F    
Average Humidity 55    
Maximum Humidity 88    
Minimum Humidity 14    
Precipitation  
Precipitation 0.01 in - 0.11 in (2008)
Sea Level Pressure  
Sea Level Pressure 30.47 in    
Wind  
Wind Speed 1 mph (SSE)    
Max Wind Speed 8 mph    
Max Gust Speed 18 mph    
Visibility 9 miles    
Events      
T = Trace of Precipitation, MM = Missing Value Source: NWS Daily Summary

Daily Weather History Graph

Daily Weather History Graph

Search for Another Location

Airport or City:

Trip Planner

Search our weather history database for the weather conditions in past years. The results will help you decide how hot, cold, wet, or windy it might be!

Date:

Astronomy

Aug. 07, 2012 Rise Set
Actual Time 6:09 AM MDT 8:11 PM MDT
Civil Twilight 5:40 AM MDT 8:41 PM MDT
Nautical Twilight 5:03 AM MDT 9:17 PM MDT
Astronomical Twilight 4:24 AM MDT 9:56 PM MDT
Moon 10:53 PM MDT (8/7) 12:00 PM MDT (8/7)
Length of Visible Light 15h 01m
Length of Day
14h 01m
Waning Gibbous, 69% of the Moon is Illuminated
Aug 7
Waning Gibbous
Aug 9
Last Quarter
Aug 17
New
Aug 24
First Quarter
Aug 31
Full

Hourly Weather History & Observations

Time (MDT) Temp. Dew Point Humidity Pressure Visibility Wind Dir Wind Speed Gust Speed Precip Events Conditions
12:16 AM 53.6 °F 50.0 °F 88% 30.52 in 10.0 mi Calm Calm - N/A   Clear
12:35 AM 53.6 °F 50.0 °F 88% 30.52 in 10.0 mi Calm Calm - N/A   Clear
12:56 AM 53.6 °F 50.0 °F 88% 30.52 in 10.0 mi Calm Calm - N/A   Clear
1:16 AM 53.6 °F 50.0 °F 88% 30.52 in 10.0 mi Calm Calm - N/A   Clear
1:36 AM 53.6 °F 50.0 °F 88% 30.52 in 10.0 mi Calm Calm - N/A   Clear
1:56 AM 53.6 °F 50.0 °F 88% 30.51 in 10.0 mi Calm Calm - N/A   Clear
2:16 AM 53.6 °F 50.0 °F 88% 30.51 in 10.0 mi Calm Calm - N/A   Clear
2:36 AM 53.6 °F 50.0 °F 88% 30.51 in 10.0 mi Calm Calm - N/A   Clear
2:55 AM 53.6 °F 50.0 °F 88% 30.51 in 10.0 mi Calm Calm - N/A   Clear
3:16 AM 51.8 °F 46.4 °F 82% 30.51 in 10.0 mi Calm Calm - N/A   Clear
3:36 AM 51.8 °F 46.4 °F 82% 30.50 in 10.0 mi Calm Calm - N/A   Clear
3:56 AM 51.8 °F 48.2 °F 88% 30.51 in 10.0 mi Calm Calm - N/A   Clear
4:16 AM 50.0 °F 46.4 °F 87% 30.51 in 2.5 mi Calm Calm - N/A   Clear
4:35 AM 50.0 °F 46.4 °F 87% 30.51 in 1.0 mi Calm Calm - N/A   Mostly Cloudy
4:56 AM 50.0 °F 46.4 °F 87% 30.50 in 0.8 mi Calm Calm - N/A   Overcast
5:15 AM 50.0 °F 44.6 °F 82% 30.51 in 0.8 mi Calm Calm - N/A   Overcast
5:36 AM 50.0 °F 44.6 °F 82% 30.51 in 3.0 mi Calm Calm - N/A   Overcast
5:56 AM 50.0 °F 44.6 °F 82% 30.52 in 10.0 mi Calm Calm - N/A   Overcast
6:16 AM 50.0 °F 46.4 °F 87% 30.52 in 10.0 mi Calm Calm - N/A   Overcast
6:36 AM 50.0 °F 44.6 °F 82% 30.53 in 10.0 mi Calm Calm - N/A   Overcast
6:56 AM 50.0 °F 44.6 °F 82% 30.53 in 10.0 mi Calm Calm - N/A   Overcast
7:16 AM 51.8 °F 46.4 °F 82% 30.53 in 10.0 mi Calm Calm - N/A   Overcast
7:36 AM 51.8 °F 46.4 °F 82% 30.53 in 10.0 mi Calm Calm - 0.01 in   Overcast
7:56 AM 51.8 °F 48.2 °F 88% 30.53 in 10.0 mi Calm Calm - 0.01 in   Overcast
8:16 AM 53.6 °F 48.2 °F 82% 30.54 in 10.0 mi Calm Calm - N/A   Overcast
8:36 AM 53.6 °F 46.4 °F 77% 30.54 in 10.0 mi Calm Calm - N/A   Overcast
8:55 AM 53.6 °F 46.4 °F 77% 30.54 in 10.0 mi Calm Calm - N/A   Overcast
9:16 AM 55.4 °F 48.2 °F 77% 30.54 in 10.0 mi Calm Calm - N/A   Overcast
9:36 AM 55.4 °F 46.4 °F 72% 30.53 in 10.0 mi West 3.5 mph - N/A   Overcast
9:56 AM 59.0 °F 48.2 °F 67% 30.53 in 10.0 mi Calm Calm - N/A   Overcast
10:16 AM 60.8 °F 48.2 °F 63% 30.52 in 10.0 mi NW 3.5 mph - N/A   Mostly Cloudy
10:36 AM - - N/A% - - North - - N/A   Unknown
10:56 AM - - N/A% - - North - - N/A   Unknown
11:16 AM - - N/A% - - North - - N/A   Unknown
11:35 AM 66.2 °F 50.0 °F 56% 30.51 in 10.0 mi Calm Calm - N/A   Clear
11:54 AM 69.8 °F 48.2 °F 46% 30.50 in 10.0 mi Calm Calm - N/A   Clear
12:15 PM 69.8 °F 44.6 °F 40% 30.49 in 10.0 mi Calm Calm - N/A   Clear
12:35 PM 71.6 °F 44.6 °F 38% 30.48 in 10.0 mi NW 3.5 mph - N/A   Clear
12:54 PM 73.4 °F 44.6 °F 36% 30.46 in 10.0 mi WNW 3.5 mph - N/A   Clear
1:15 PM 73.4 °F 42.8 °F 33% 30.46 in 10.0 mi Calm Calm - N/A   Clear
1:35 PM 77.0 °F 44.6 °F 32% 30.45 in 10.0 mi Calm Calm - N/A   Clear
1:55 PM 77.0 °F 42.8 °F 29% 30.44 in 10.0 mi WSW 3.5 mph - N/A   Clear
2:15 PM 78.8 °F 41.0 °F 26% 30.43 in 10.0 mi SW 6.9 mph - N/A   Clear
2:35 PM 78.8 °F 37.4 °F 23% 30.42 in 10.0 mi South 4.6 mph - N/A   Clear
2:54 PM 80.6 °F 33.8 °F 18% 30.42 in 10.0 mi WNW 3.5 mph - N/A   Clear
3:15 PM 80.6 °F 32.0 °F 17% 30.42 in 10.0 mi SSW 5.8 mph - N/A   Clear
3:35 PM 80.6 °F 32.0 °F 17% 30.41 in 10.0 mi SSW 4.6 mph - N/A   Clear
3:55 PM 80.6 °F 30.2 °F 16% 30.41 in 10.0 mi SSW 3.5 mph - N/A   Scattered Clouds
4:15 PM 80.6 °F 32.0 °F 17% 30.41 in 10.0 mi SE 5.8 mph - N/A   Scattered Clouds
4:35 PM 80.6 °F 30.2 °F 16% 30.40 in 10.0 mi SE 6.9 mph - N/A   Clear
4:55 PM 80.6 °F 28.4 °F 15% 30.40 in 10.0 mi South 6.9 mph - N/A   Clear
5:15 PM 80.6 °F 26.6 °F 14% 30.40 in 10.0 mi East 8.1 mph - N/A   Scattered Clouds
5:35 PM 80.6 °F 28.4 °F 15% 30.40 in 10.0 mi ENE 6.9 mph 18.4 mph N/A   Scattered Clouds
5:55 PM 80.6 °F 28.4 °F 15% 30.39 in 10.0 mi ESE 6.9 mph - N/A   Clear
6:15 PM 80.6 °F 28.4 °F 15% 30.39 in 10.0 mi ESE 6.9 mph - N/A   Clear
6:35 PM 78.8 °F 28.4 °F 16% 30.39 in 10.0 mi ESE 5.8 mph - N/A   Clear
6:55 PM 78.8 °F 30.2 °F 17% 30.39 in 10.0 mi East 5.8 mph - N/A   Clear
7:15 PM 78.8 °F 32.0 °F 18% 30.39 in 10.0 mi ESE 4.6 mph - N/A   Clear
7:35 PM 75.2 °F 35.6 °F 24% 30.40 in 10.0 mi ESE 3.5 mph - N/A   Clear
7:54 PM 73.4 °F 35.6 °F 25% 30.40 in 10.0 mi Calm Calm - N/A   Scattered Clouds
8:15 PM 69.8 °F 35.6 °F 28% 30.41 in 10.0 mi Calm Calm - N/A   Scattered Clouds
8:35 PM 66.2 °F 42.8 °F 43% 30.41 in 10.0 mi Calm Calm - N/A   Scattered Clouds
8:55 PM 62.6 °F 41.0 °F 45% 30.42 in 10.0 mi Calm Calm - N/A   Scattered Clouds
9:15 PM 60.8 °F 41.0 °F 48% 30.42 in 10.0 mi Calm Calm - N/A   Clear
9:55 PM 59.0 °F 39.2 °F 48% 30.44 in 10.0 mi Calm Calm - N/A   Clear
10:15 PM 59.0 °F 39.2 °F 48% 30.44 in 10.0 mi East 5.8 mph - N/A   Clear
10:35 PM 59.0 °F 37.4 °F 45% 30.45 in 10.0 mi Calm Calm - N/A   Scattered Clouds
10:55 PM 59.0 °F 39.2 °F 48% 30.46 in 10.0 mi Calm Calm - N/A   Scattered Clouds
11:15 PM 55.4 °F 39.2 °F 54% 30.46 in 10.0 mi Calm Calm - N/A   Clear
11:35 PM 53.6 °F 39.2 °F 58% 30.47 in 10.0 mi Calm Calm - N/A   Clear
11:55 PM 55.4 °F 41.0 °F 58% 30.47 in 10.0 mi Calm Calm - N/A   Clear